Location: Eindhoven
(51.4416°N, 5.4697°E)
Time: 20:22:54
(UTC+01:00)

deb Explorer IX - Pass Details

Date: 24 November 2019
Orbit: 546 x 1105 km, 38.8° (Epoch: 09 December)

Event Time Altitude Azimuth Distance (km) Brightness Sun altitude
Rises 23:12:42 0° 217° (SW) 3,901 - -56.1°
Reaches altitude 10° 23:16:22 10° 201° (SSW) 2,913 - -56.4°
Maximum altitude 23:21:05 19° 159° (SSE) 2,243 - -56.8°
Drops below altitude 10° 23:25:34 10° 117° (ESE) 2,737 - -57.1°
Sets 23:28:51 0° 100° (E) 3,589 - -57.3°
